owner,sensor,date,latitude,longitude,air_pressure(mBar),qcFlag 
TABS,ioos:station:wmo:42047:1,2015-04-01T00:00:00Z,27.8966,-93.5973,1017.29,11111222 
TABS,ioos:station:wmo:42047:1,2015-04-01T00:30:00Z,27.8966,-93.5973,1017.35,11111222 
TABS,ioos:station:wmo:42047:1,2015-04-01T01:00:00Z,27.8966,-93.5973,1017.35,11111222 
TABS,ioos:station:wmo:42047:1,2015-04-01T01:30:00Z,27.8966,-93.5973,1017.56,11111222 
TABS,ioos:station:wmo:42047:1,2015-04-01T02:00:00Z,27.8966,-93.5973,1017.53,11111222 
TABS,ioos:station:wmo:42047:1,2015-04-01T02:30:00Z,27.8966,-93.5973,1017.78,11111222 
TABS,ioos:station:wmo:42047:1,2015-04-01T03:00:00Z,27.8966,-93.5973,1017.77,11111222 
TABS,ioos:station:wmo:42047:1,2015-04-01T03:30:00Z,27.8966,-93.5973,1017.64,11111222 
TABS,ioos:station:wmo:42047:1,2015-04-01T04:00:00Z,27.8966,-93.5973,1017.41,11111222 
TABS,ioos:station:wmo:42047:1,2015-04-01T04:30:00Z,27.8966,-93.5973,1016.88,11111222 
TABS,ioos:station:wmo:42047:1,2015-04-01T05:00:00Z,27.8966,-93.5973,1016.94,11111222 
TABS,ioos:station:wmo:42047:1,2015-04-01T05:30:00Z,27.8966,-93.5973,1016.95,11111222 
TABS,ioos:station:wmo:42047:1,2015-04-01T06:00:00Z,27.8966,-93.5973,1016.61,11111222 
TABS,ioos:station:wmo:42047:1,2015-04-01T06:30:00Z,27.8966,-93.5973,1016.26,11111222 
TABS,ioos:station:wmo:42047:1,2015-04-01T07:00:00Z,27.8966,-93.5973,1015.48,11111222 
TABS,ioos:station:wmo:42047:1,2015-04-01T07:30:00Z,27.8966,-93.5973,1014.91,11111222 
TABS,ioos:station:wmo:42047:1,2015-04-01T08:00:00Z,27.8966,-93.5973,1014.69,11111222 
TABS,ioos:station:wmo:42047:1,2015-04-01T08:30:00Z,27.8966,-93.5973,1014.68,11111222 
TABS,ioos:station:wmo:42047:1,2015-04-01T09:00:00Z,27.8966,-93.5973,1014.98,11111222 
TABS,ioos:station:wmo:42047:1,2015-04-01T09:30:00Z,27.8966,-93.5973,1015.12,11111222 
TABS,ioos:station:wmo:42047:1,2015-04-01T10:00:00Z,27.8966,-93.5973,1014.98,11111222 
TABS,ioos:station:wmo:42047:1,2015-04-01T10:30:00Z,27.8966,-93.5973,1015.12,11111222 
TABS,ioos:station:wmo:42047:1,2015-04-01T11:00:00Z,27.8966,-93.5973,1015.34,11111222 
TABS,ioos:station:wmo:42047:1,2015-04-01T11:30:00Z,27.8966,-93.5973,1015.59,11111222 
TABS,ioos:station:wmo:42047:1,2015-04-01T12:00:00Z,27.8966,-93.5973,1015.77,11111222 
TABS,ioos:station:wmo:42047:1,2015-04-01T12:30:00Z,27.8966,-93.5973,1016.13,11111222 
TABS,ioos:station:wmo:42047:1,2015-04-01T13:00:00Z,27.8966,-93.5973,1016.64,11111222 
TABS,ioos:station:wmo:42047:1,2015-04-01T13:30:00Z,27.8966,-93.5973,1016.91,11111222 
TABS,ioos:station:wmo:42047:1,2015-04-01T14:00:00Z,27.8966,-93.5973,1017.32,11111222 
TABS,ioos:station:wmo:42047:1,2015-04-01T14:30:00Z,27.8966,-93.5973,1017.85,11111222 
TABS,ioos:station:wmo:42047:1,2015-04-01T15:00:00Z,27.8966,-93.5973,1018.19,11111222 
TABS,ioos:station:wmo:42047:1,2015-04-01T15:30:00Z,27.8966,-93.5973,1017.99,11111222 
TABS,ioos:station:wmo:42047:1,2015-04-01T16:00:00Z,27.8966,-93.5973,1017.88,11111222 
TABS,ioos:station:wmo:42047:1,2015-04-01T16:30:00Z,27.8966,-93.5973,1018.53,11111222 
TABS,ioos:station:wmo:42047:1,2015-04-01T17:00:00Z,27.8966,-93.5973,1018.8,11111222 
TABS,ioos:station:wmo:42047:1,2015-04-01T17:30:00Z,27.8966,-93.5973,1018.39,11111222 
TABS,ioos:station:wmo:42047:1,2015-04-01T18:00:00Z,27.8966,-93.5973,1017.77,11111222 
TABS,ioos:station:wmo:42047:1,2015-04-01T18:30:00Z,27.8966,-93.5973,1016.85,11111222 
TABS,ioos:station:wmo:42047:1,2015-04-01T19:00:00Z,27.8966,-93.5973,1016.91,11111222 
TABS,ioos:station:wmo:42047:1,2015-04-01T19:30:00Z,27.8966,-93.5973,1016.8,11111222 
TABS,ioos:station:wmo:42047:1,2015-04-01T20:00:00Z,27.8966,-93.5973,1016.16,11111222 
TABS,ioos:station:wmo:42047:1,2015-04-01T20:30:00Z,27.8966,-93.5973,1015.71,11111222 
TABS,ioos:station:wmo:42047:1,2015-04-01T21:00:00Z,27.8966,-93.5973,1015.54,11111222 
TABS,ioos:station:wmo:42047:1,2015-04-01T21:30:00Z,27.8966,-93.5973,1015.24,11111222 
TABS,ioos:station:wmo:42047:1,2015-04-01T22:00:00Z,27.8966,-93.5973,1015.29,11111222 
TABS,ioos:station:wmo:42047:1,2015-04-01T22:30:00Z,27.8966,-93.5973,1015.26,11111222 
TABS,ioos:station:wmo:42047:1,2015-04-01T23:00:00Z,27.8966,-93.5973,1014.59,11111222 
TABS,ioos:station:wmo:42047:1,2015-04-01T23:30:00Z,27.8966,-93.5973,1013.69,11111222 
TABS,ioos:station:wmo:42047:1,2015-04-02T00:00:00Z,27.8966,-93.5973,1014.05,11111222 
TABS,ioos:station:wmo:42047:1,2015-04-02T00:30:00Z,27.8966,-93.5973,1014.38,11111222 
TABS,ioos:station:wmo:42047:1,2015-04-02T01:00:00Z,27.8966,-93.5973,1014.51,11111222 
TABS,ioos:station:wmo:42047:1,2015-04-02T01:30:00Z,27.8966,-93.5973,1015.16,11111222 
TABS,ioos:station:wmo:42047:1,2015-04-02T02:00:00Z,27.8966,-93.5973,1015.54,11111222 
TABS,ioos:station:wmo:42047:1,2015-04-02T02:30:00Z,27.8966,-93.5973,1015.54,11111222 
TABS,ioos:station:wmo:42047:1,2015-04-02T03:00:00Z,27.8966,-93.5973,1016.24,11111222 
TABS,ioos:station:wmo:42047:1,2015-04-02T03:30:00Z,27.8966,-93.5973,1016.32,11111222 
TABS,ioos:station:wmo:42047:1,2015-04-02T04:00:00Z,27.8966,-93.5973,1016.57,11111222 
TABS,ioos:station:wmo:42047:1,2015-04-02T04:30:00Z,27.8966,-93.5973,1016.6,11111222 
TABS,ioos:station:wmo:42047:1,2015-04-02T05:00:00Z,27.8966,-93.5973,1016.3,11111222 
TABS,ioos:station:wmo:42047:1,2015-04-02T05:30:00Z,27.8966,-93.5973,1016.23,11111222 
TABS,ioos:station:wmo:42047:1,2015-04-02T06:00:00Z,27.8966,-93.5973,1016.21,11111222 
TABS,ioos:station:wmo:42047:1,2015-04-02T06:30:00Z,27.8966,-93.5973,1016.02,11111222 
TABS,ioos:station:wmo:42047:1,2015-04-02T07:00:00Z,27.8966,-93.5973,1015.33,11111222 
TABS,ioos:station:wmo:42047:1,2015-04-02T07:30:00Z,27.8966,-93.5973,1015.3,11111222 
TABS,ioos:station:wmo:42047:1,2015-04-02T08:00:00Z,27.8966,-93.5973,1015.18,11111222 
TABS,ioos:station:wmo:42047:1,2015-04-02T08:30:00Z,27.8966,-93.5973,1014.57,11111222 
TABS,ioos:station:wmo:42047:1,2015-04-02T09:00:00Z,27.8966,-93.5973,1015.06,11111222 
TABS,ioos:station:wmo:42047:1,2015-04-02T09:30:00Z,27.8966,-93.5973,1014.91,11111222 
TABS,ioos:station:wmo:42047:1,2015-04-02T10:00:00Z,27.8966,-93.5973,1015.07,11111222 
TABS,ioos:station:wmo:42047:1,2015-04-02T10:30:00Z,27.8966,-93.5973,1015.43,11111222 
TABS,ioos:station:wmo:42047:1,2015-04-02T11:00:00Z,27.8966,-93.5973,1015.92,11111222 
TABS,ioos:station:wmo:42047:1,2015-04-02T11:30:00Z,27.8966,-93.5973,1016.16,11111222 
TABS,ioos:station:wmo:42047:1,2015-04-02T12:00:00Z,27.8966,-93.5973,1016.62,11111222 
TABS,ioos:station:wmo:42047:1,2015-04-02T12:30:00Z,27.8966,-93.5973,1016.79,11111222 
TABS,ioos:station:wmo:42047:1,2015-04-02T13:00:00Z,27.8966,-93.5973,1016.99,11111222 
TABS,ioos:station:wmo:42047:1,2015-04-02T13:30:00Z,27.8966,-93.5973,1017.13,11111222 
TABS,ioos:station:wmo:42047:1,2015-04-02T14:00:00Z,27.8966,-93.5973,1017.22,11111222 
TABS,ioos:station:wmo:42047:1,2015-04-02T14:30:00Z,27.8966,-93.5973,1017.29,11111222 
TABS,ioos:station:wmo:42047:1,2015-04-02T15:00:00Z,27.8966,-93.5973,1017.58,11111222 
TABS,ioos:station:wmo:42047:1,2015-04-02T15:30:00Z,27.8966,-93.5973,1018.07,11111222 
TABS,ioos:station:wmo:42047:1,2015-04-02T16:00:00Z,27.8966,-93.5973,1018.33,11111222 
TABS,ioos:station:wmo:42047:1,2015-04-02T16:30:00Z,27.8966,-93.5973,1018.41,11111222 
TABS,ioos:station:wmo:42047:1,2015-04-02T17:00:00Z,27.8966,-93.5973,1018.3,11111222 
TABS,ioos:station:wmo:42047:1,2015-04-02T17:30:00Z,27.8966,-93.5973,1018.2,11111222 
TABS,ioos:station:wmo:42047:1,2015-04-02T18:00:00Z,27.8966,-93.5973,1017.79,11111222 
TABS,ioos:station:wmo:42047:1,2015-04-02T18:30:00Z,27.8966,-93.5973,1017.69,11111222 
TABS,ioos:station:wmo:42047:1,2015-04-02T19:00:00Z,27.8966,-93.5973,1017.33,11111222 
TABS,ioos:station:wmo:42047:1,2015-04-02T19:30:00Z,27.8966,-93.5973,1017.02,11111222 
TABS,ioos:station:wmo:42047:1,2015-04-02T20:00:00Z,27.8966,-93.5973,1016.48,11111222 
TABS,ioos:station:wmo:42047:1,2015-04-02T20:30:00Z,27.8966,-93.5973,1016.34,11111222 
TABS,ioos:station:wmo:42047:1,2015-04-02T21:00:00Z,27.8966,-93.5973,1015.99,11111222 
TABS,ioos:station:wmo:42047:1,2015-04-02T21:30:00Z,27.8966,-93.5973,1015.76,11111222 
TABS,ioos:station:wmo:42047:1,2015-04-02T22:00:00Z,27.8966,-93.5973,1015.76,11111222 
TABS,ioos:station:wmo:42047:1,2015-04-02T22:30:00Z,27.8966,-93.5973,1015.68,11111222 
TABS,ioos:station:wmo:42047:1,2015-04-02T23:00:00Z,27.8966,-93.5973,1015.77,11111222 
TABS,ioos:station:wmo:42047:1,2015-04-02T23:30:00Z,27.8966,-93.5973,1015.71,11111222 
TABS,ioos:station:wmo:42047:1,2015-04-03T00:00:00Z,27.8966,-93.5973,1015.76,11111222 
TABS,ioos:station:wmo:42047:1,2015-04-03T00:30:00Z,27.8966,-93.5973,1015.78,11111222 
TABS,ioos:station:wmo:42047:1,2015-04-03T01:00:00Z,27.8966,-93.5973,1016.02,11111222 
TABS,ioos:station:wmo:42047:1,2015-04-03T01:30:00Z,27.8966,-93.5973,1016.12,11111222 
TABS,ioos:station:wmo:42047:1,2015-04-03T02:00:00Z,27.8966,-93.5973,1016.3,11111222 
TABS,ioos:station:wmo:42047:1,2015-04-03T02:30:00Z,27.8966,-93.5973,1016.7,11111222 
TABS,ioos:station:wmo:42047:1,2015-04-03T03:00:00Z,27.8966,-93.5973,1016.98,11111222 
TABS,ioos:station:wmo:42047:1,2015-04-03T03:30:00Z,27.8966,-93.5973,1017.26,11111222 
TABS,ioos:station:wmo:42047:1,2015-04-03T04:00:00Z,27.8966,-93.5973,1017.31,11111222 
TABS,ioos:station:wmo:42047:1,2015-04-03T04:30:00Z,27.8966,-93.5973,1017.34,11111222 
TABS,ioos:station:wmo:42047:1,2015-04-03T05:00:00Z,27.8966,-93.5973,1017.32,11111222 
TABS,ioos:station:wmo:42047:1,2015-04-03T05:30:00Z,27.8966,-93.5973,1017.29,11111222 
TABS,ioos:station:wmo:42047:1,2015-04-03T06:00:00Z,27.8966,-93.5973,1017.06,11111222 
TABS,ioos:station:wmo:42047:1,2015-04-03T06:30:00Z,27.8966,-93.5973,1016.89,11111222 
TABS,ioos:station:wmo:42047:1,2015-04-03T07:00:00Z,27.8966,-93.5973,1016.42,11111222 
TABS,ioos:station:wmo:42047:1,2015-04-03T07:30:00Z,27.8966,-93.5973,1015.91,11111222 
TABS,ioos:station:wmo:42047:1,2015-04-03T08:00:00Z,27.8966,-93.5973,1015.31,11111222 
TABS,ioos:station:wmo:42047:1,2015-04-03T08:30:00Z,27.8966,-93.5973,1015.2,11111222 
TABS,ioos:station:wmo:42047:1,2015-04-03T09:00:00Z,27.8966,-93.5973,1015.11,11111222 
TABS,ioos:station:wmo:42047:1,2015-04-03T09:30:00Z,27.8966,-93.5973,1015.09,11111222 
TABS,ioos:station:wmo:42047:1,2015-04-03T10:00:00Z,27.8966,-93.5973,1014.99,11111222 
TABS,ioos:station:wmo:42047:1,2015-04-03T10:30:00Z,27.8966,-93.5973,1015.29,11111222 
TABS,ioos:station:wmo:42047:1,2015-04-03T11:00:00Z,27.8966,-93.5973,1015.48,11111222 
TABS,ioos:station:wmo:42047:1,2015-04-03T11:30:00Z,27.8966,-93.5973,1015.84,11111222 
TABS,ioos:station:wmo:42047:1,2015-04-03T12:00:00Z,27.8966,-93.5973,1016.52,11111222 
TABS,ioos:station:wmo:42047:1,2015-04-03T12:30:00Z,27.8966,-93.5973,1016.53,11111222 
TABS,ioos:station:wmo:42047:1,2015-04-03T13:00:00Z,27.8966,-93.5973,1016.87,11111222 
TABS,ioos:station:wmo:42047:1,2015-04-03T13:30:00Z,27.8966,-93.5973,1016.91,11111222 
TABS,ioos:station:wmo:42047:1,2015-04-03T14:00:00Z,27.8966,-93.5973,1017.32,11111222 
TABS,ioos:station:wmo:42047:1,2015-04-03T14:30:00Z,27.8966,-93.5973,1017.64,11111222 
TABS,ioos:station:wmo:42047:1,2015-04-03T15:00:00Z,27.8966,-93.5973,1017.58,11111222 
TABS,ioos:station:wmo:42047:1,2015-04-03T15:30:00Z,27.8966,-93.5973,1017.71,11111222 
TABS,ioos:station:wmo:42047:1,2015-04-03T16:00:00Z,27.8966,-93.5973,1017.78,11111222 
TABS,ioos:station:wmo:42047:1,2015-04-03T16:30:00Z,27.8966,-93.5973,1017.73,11111222 
TABS,ioos:station:wmo:42047:1,2015-04-03T17:00:00Z,27.8966,-93.5973,1017.63,11111222 
TABS,ioos:station:wmo:42047:1,2015-04-03T17:30:00Z,27.8966,-93.5973,1017.17,11111222 
TABS,ioos:station:wmo:42047:1,2015-04-03T18:00:00Z,27.8966,-93.5973,1017.24,11111222 
TABS,ioos:station:wmo:42047:1,2015-04-03T18:30:00Z,27.8966,-93.5973,1016.95,11111222 
TABS,ioos:station:wmo:42047:1,2015-04-03T19:00:00Z,27.8966,-93.5973,1016.74,11111222 
TABS,ioos:station:wmo:42047:1,2015-04-03T19:30:00Z,27.8966,-93.5973,1016.58,11111222 
TABS,ioos:station:wmo:42047:1,2015-04-03T20:00:00Z,27.8966,-93.5973,1016.52,11111222 
TABS,ioos:station:wmo:42047:1,2015-04-03T20:30:00Z,27.8966,-93.5973,1016.39,11111222 
TABS,ioos:station:wmo:42047:1,2015-04-03T21:00:00Z,27.8966,-93.5973,1016.14,11111222 
TABS,ioos:station:wmo:42047:1,2015-04-03T21:30:00Z,27.8966,-93.5973,1016.3,11111222 
TABS,ioos:station:wmo:42047:1,2015-04-03T22:00:00Z,27.8966,-93.5973,1016.17,11111222 
TABS,ioos:station:wmo:42047:1,2015-04-03T22:30:00Z,27.8966,-93.5973,1016.36,11111222 
TABS,ioos:station:wmo:42047:1,2015-04-03T23:00:00Z,27.8966,-93.5973,1016.55,11111222 
TABS,ioos:station:wmo:42047:1,2015-04-03T23:30:00Z,27.8966,-93.5973,1016.86,11111222 
TABS,ioos:station:wmo:42047:1,2015-04-04T00:00:00Z,27.8966,-93.5973,1016.88,11111222 
TABS,ioos:station:wmo:42047:1,2015-04-04T00:30:00Z,27.8966,-93.5973,1016.99,11111222 
TABS,ioos:station:wmo:42047:1,2015-04-04T01:00:00Z,27.8966,-93.5973,1017.69,11111222 
TABS,ioos:station:wmo:42047:1,2015-04-04T01:30:00Z,27.8966,-93.5973,1018.07,11111222 
TABS,ioos:station:wmo:42047:1,2015-04-04T02:00:00Z,27.8966,-93.5973,1018.57,11111222 
TABS,ioos:station:wmo:42047:1,2015-04-04T02:30:00Z,27.8966,-93.5973,1018.74,11111222 
TABS,ioos:station:wmo:42047:1,2015-04-04T03:00:00Z,27.8966,-93.5973,1018.45,11111222 
TABS,ioos:station:wmo:42047:1,2015-04-04T03:30:00Z,27.8966,-93.5973,1018.4,11111222 
TABS,ioos:station:wmo:42047:1,2015-04-04T04:00:00Z,27.8966,-93.5973,1018.42,11111222 
TABS,ioos:station:wmo:42047:1,2015-04-04T04:30:00Z,27.8966,-93.5973,1018.19,11111222 
TABS,ioos:station:wmo:42047:1,2015-04-04T05:00:00Z,27.8966,-93.5973,1018.17,11111222 
TABS,ioos:station:wmo:42047:1,2015-04-04T05:30:00Z,27.8966,-93.5973,1018.02,11111222 
TABS,ioos:station:wmo:42047:1,2015-04-04T06:00:00Z,27.8966,-93.5973,1018.01,11111222 
TABS,ioos:station:wmo:42047:1,2015-04-04T06:30:00Z,27.8966,-93.5973,1018.25,11111222 
TABS,ioos:station:wmo:42047:1,2015-04-04T07:00:00Z,27.8966,-93.5973,1018.51,11111222 
TABS,ioos:station:wmo:42047:1,2015-04-04T07:30:00Z,27.8966,-93.5973,1018.61,11111222 
TABS,ioos:station:wmo:42047:1,2015-04-04T08:00:00Z,27.8966,-93.5973,1018.56,11111222 
TABS,ioos:station:wmo:42047:1,2015-04-04T08:30:00Z,27.8966,-93.5973,1018.29,11111222 
TABS,ioos:station:wmo:42047:1,2015-04-04T09:00:00Z,27.8966,-93.5973,1018.04,11111222 
TABS,ioos:station:wmo:42047:1,2015-04-04T09:30:00Z,27.8966,-93.5973,1018.1,11111222 
TABS,ioos:station:wmo:42047:1,2015-04-04T10:00:00Z,27.8966,-93.5973,1018.21,11111222 
TABS,ioos:station:wmo:42047:1,2015-04-04T10:30:00Z,27.8966,-93.5973,1018.31,11111222 
TABS,ioos:station:wmo:42047:1,2015-04-04T11:00:00Z,27.8966,-93.5973,1018.65,11111222 
TABS,ioos:station:wmo:42047:1,2015-04-04T11:30:00Z,27.8966,-93.5973,1018.76,11111222 
TABS,ioos:station:wmo:42047:1,2015-04-04T12:00:00Z,27.8966,-93.5973,1019.38,11111222 
TABS,ioos:station:wmo:42047:1,2015-04-04T12:30:00Z,27.8966,-93.5973,1019.78,11111222 
TABS,ioos:station:wmo:42047:1,2015-04-04T13:00:00Z,27.8966,-93.5973,1020.13,11111222 
TABS,ioos:station:wmo:42047:1,2015-04-04T13:30:00Z,27.8966,-93.5973,1020.27,11111222 
TABS,ioos:station:wmo:42047:1,2015-04-04T14:00:00Z,27.8966,-93.5973,1020.83,11111222 
TABS,ioos:station:wmo:42047:1,2015-04-04T14:30:00Z,27.8966,-93.5973,1021.16,11111222 
TABS,ioos:station:wmo:42047:1,2015-04-04T15:00:00Z,27.8966,-93.5973,1021.93,11111222 
TABS,ioos:station:wmo:42047:1,2015-04-04T15:30:00Z,27.8966,-93.5973,1021.8,11111222 
TABS,ioos:station:wmo:42047:1,2015-04-04T16:00:00Z,27.8966,-93.5973,1022.59,11111222 
TABS,ioos:station:wmo:42047:1,2015-04-04T16:30:00Z,27.8966,-93.5973,1022.33,11111222 
TABS,ioos:station:wmo:42047:1,2015-04-04T17:00:00Z,27.8966,-93.5973,1022.3,11111222 
TABS,ioos:station:wmo:42047:1,2015-04-04T17:30:00Z,27.8966,-93.5973,1022.08,11111222 
TABS,ioos:station:wmo:42047:1,2015-04-04T18:00:00Z,27.8966,-93.5973,1022.12,11111222 
TABS,ioos:station:wmo:42047:1,2015-04-04T18:30:00Z,27.8966,-93.5973,1021.55,11111222 
TABS,ioos:station:wmo:42047:1,2015-04-04T19:00:00Z,27.8966,-93.5973,1021.26,11111222 
TABS,ioos:station:wmo:42047:1,2015-04-04T19:30:00Z,27.8966,-93.5973,1021.23,11111222 
TABS,ioos:station:wmo:42047:1,2015-04-04T20:00:00Z,27.8966,-93.5973,1020.97,11111222 
TABS,ioos:station:wmo:42047:1,2015-04-04T20:30:00Z,27.8966,-93.5973,1020.95,11111222 
TABS,ioos:station:wmo:42047:1,2015-04-04T21:00:00Z,27.8966,-93.5973,1020.87,11111222 
TABS,ioos:station:wmo:42047:1,2015-04-04T21:30:00Z,27.8966,-93.5973,1020.48,11111222 
TABS,ioos:station:wmo:42047:1,2015-04-04T22:00:00Z,27.8966,-93.5973,1020.45,11111222 
TABS,ioos:station:wmo:42047:1,2015-04-04T22:30:00Z,27.8966,-93.5973,1020.37,11111222 
TABS,ioos:station:wmo:42047:1,2015-04-04T23:00:00Z,27.8966,-93.5973,1020.18,11111222 
TABS,ioos:station:wmo:42047:1,2015-04-04T23:30:00Z,27.8966,-93.5973,1020.45,11111222 
TABS,ioos:station:wmo:42047:1,2015-04-05T00:00:00Z,27.8966,-93.5973,1020.52,11111222 
TABS,ioos:station:wmo:42047:1,2015-04-05T00:30:00Z,27.8966,-93.5973,1020.67,11111222 
TABS,ioos:station:wmo:42047:1,2015-04-05T01:00:00Z,27.8966,-93.5973,1021.02,11111222 
TABS,ioos:station:wmo:42047:1,2015-04-05T01:30:00Z,27.8966,-93.5973,1020.78,11111222 
TABS,ioos:station:wmo:42047:1,2015-04-05T02:00:00Z,27.8966,-93.5973,1020.99,11111222 
TABS,ioos:station:wmo:42047:1,2015-04-05T02:30:00Z,27.8966,-93.5973,1021.02,11111222 
TABS,ioos:station:wmo:42047:1,2015-04-05T03:00:00Z,27.8966,-93.5973,1021.28,11111222 
TABS,ioos:station:wmo:42047:1,2015-04-05T03:30:00Z,27.8966,-93.5973,1021.36,11111222 
TABS,ioos:station:wmo:42047:1,2015-04-05T04:00:00Z,27.8966,-93.5973,1021.39,11111222 
TABS,ioos:station:wmo:42047:1,2015-04-05T04:30:00Z,27.8966,-93.5973,1021.28,11111222 
TABS,ioos:station:wmo:42047:1,2015-04-05T05:00:00Z,27.8966,-93.5973,1020.85,11111222 
TABS,ioos:station:wmo:42047:1,2015-04-05T05:30:00Z,27.8966,-93.5973,1020.72,11111222 
TABS,ioos:station:wmo:42047:1,2015-04-05T06:00:00Z,27.8966,-93.5973,1020.3,11111222 
TABS,ioos:station:wmo:42047:1,2015-04-05T06:30:00Z,27.8966,-93.5973,1020.26,11111222 
TABS,ioos:station:wmo:42047:1,2015-04-05T07:00:00Z,27.8966,-93.5973,1019.84,11111222 
TABS,ioos:station:wmo:42047:1,2015-04-05T07:30:00Z,27.8966,-93.5973,1019.26,11111222 
TABS,ioos:station:wmo:42047:1,2015-04-05T08:00:00Z,27.8966,-93.5973,1018.84,11111222 
TABS,ioos:station:wmo:42047:1,2015-04-05T08:30:00Z,27.8966,-93.5973,1018.38,11111222 
TABS,ioos:station:wmo:42047:1,2015-04-05T09:00:00Z,27.8966,-93.5973,1017.9,11111222 
TABS,ioos:station:wmo:42047:1,2015-04-05T09:30:00Z,27.8966,-93.5973,1017.78,11111222 
TABS,ioos:station:wmo:42047:1,2015-04-05T10:00:00Z,27.8966,-93.5973,1018.04,11111222 
TABS,ioos:station:wmo:42047:1,2015-04-05T10:30:00Z,27.8966,-93.5973,1018.0,11111222 
TABS,ioos:station:wmo:42047:1,2015-04-05T11:00:00Z,27.8966,-93.5973,1017.82,11111222 
TABS,ioos:station:wmo:42047:1,2015-04-05T11:30:00Z,27.8966,-93.5973,1017.94,11111222 
TABS,ioos:station:wmo:42047:1,2015-04-05T12:00:00Z,27.8966,-93.5973,1017.79,11111222 
TABS,ioos:station:wmo:42047:1,2015-04-05T12:30:00Z,27.8966,-93.5973,1017.53,11111222 
TABS,ioos:station:wmo:42047:1,2015-04-05T13:00:00Z,27.8966,-93.5973,1017.67,11111222 
TABS,ioos:station:wmo:42047:1,2015-04-05T13:30:00Z,27.8966,-93.5973,1018.22,11111222 
TABS,ioos:station:wmo:42047:1,2015-04-05T14:00:00Z,27.8966,-93.5973,1017.9,11111222 
TABS,ioos:station:wmo:42047:1,2015-04-05T14:30:00Z,27.8966,-93.5973,1017.61,11111222 
TABS,ioos:station:wmo:42047:1,2015-04-05T15:00:00Z,27.8966,-93.5973,1017.8,11111222 
TABS,ioos:station:wmo:42047:1,2015-04-05T15:30:00Z,27.8966,-93.5973,1017.83,11111222 
TABS,ioos:station:wmo:42047:1,2015-04-05T16:00:00Z,27.8966,-93.5973,1017.58,11111222 
TABS,ioos:station:wmo:42047:1,2015-04-05T16:30:00Z,27.8966,-93.5973,1017.9,11111222 
TABS,ioos:station:wmo:42047:1,2015-04-05T17:00:00Z,27.8966,-93.5973,1017.56,11111222 
TABS,ioos:station:wmo:42047:1,2015-04-05T17:30:00Z,27.8966,-93.5973,1017.32,11111222 
TABS,ioos:station:wmo:42047:1,2015-04-05T18:00:00Z,27.8966,-93.5973,1017.04,11111222 
TABS,ioos:station:wmo:42047:1,2015-04-05T18:30:00Z,27.8966,-93.5973,1016.98,11111222 
TABS,ioos:station:wmo:42047:1,2015-04-05T19:00:00Z,27.8966,-93.5973,1016.69,11111222 
TABS,ioos:station:wmo:42047:1,2015-04-05T19:30:00Z,27.8966,-93.5973,1016.28,11111222 
TABS,ioos:station:wmo:42047:1,2015-04-05T20:00:00Z,27.8966,-93.5973,1016.08,11111222 
TABS,ioos:station:wmo:42047:1,2015-04-05T20:30:00Z,27.8966,-93.5973,1015.72,11111222 
TABS,ioos:station:wmo:42047:1,2015-04-05T21:00:00Z,27.8966,-93.5973,1015.11,11111222 
TABS,ioos:station:wmo:42047:1,2015-04-05T21:30:00Z,27.8966,-93.5973,1015.14,11111222 
TABS,ioos:station:wmo:42047:1,2015-04-05T22:00:00Z,27.8966,-93.5973,1015.13,11111222 
TABS,ioos:station:wmo:42047:1,2015-04-05T22:30:00Z,27.8966,-93.5973,1014.98,11111222 
TABS,ioos:station:wmo:42047:1,2015-04-05T23:00:00Z,27.8966,-93.5973,1015.45,11111222 
TABS,ioos:station:wmo:42047:1,2015-04-05T23:30:00Z,27.8966,-93.5973,1015.58,11111222 
TABS,ioos:station:wmo:42047:1,2015-04-06T00:00:00Z,27.8966,-93.5973,1015.41,11111222 
TABS,ioos:station:wmo:42047:1,2015-04-06T00:30:00Z,27.8966,-93.5973,1015.45,11111222 
TABS,ioos:station:wmo:42047:1,2015-04-06T01:00:00Z,27.8966,-93.5973,1015.43,11111222 
TABS,ioos:station:wmo:42047:1,2015-04-06T01:30:00Z,27.8966,-93.5973,1015.73,11111222 
TABS,ioos:station:wmo:42047:1,2015-04-06T02:00:00Z,27.8966,-93.5973,1015.99,11111222 
TABS,ioos:station:wmo:42047:1,2015-04-06T02:30:00Z,27.8966,-93.5973,1016.15,11111222 
TABS,ioos:station:wmo:42047:1,2015-04-06T03:00:00Z,27.8966,-93.5973,1016.22,11111222 
TABS,ioos:station:wmo:42047:1,2015-04-06T03:30:00Z,27.8966,-93.5973,1016.33,11111222 
TABS,ioos:station:wmo:42047:1,2015-04-06T04:00:00Z,27.8966,-93.5973,1016.67,11111222 
TABS,ioos:station:wmo:42047:1,2015-04-06T04:30:00Z,27.8966,-93.5973,1016.83,11111222 
TABS,ioos:station:wmo:42047:1,2015-04-06T05:00:00Z,27.8966,-93.5973,1016.78,11111222 
TABS,ioos:station:wmo:42047:1,2015-04-06T05:30:00Z,27.8966,-93.5973,1016.52,11111222 
TABS,ioos:station:wmo:42047:1,2015-04-06T06:00:00Z,27.8966,-93.5973,1016.24,11111222 
TABS,ioos:station:wmo:42047:1,2015-04-06T06:30:00Z,27.8966,-93.5973,1015.97,11111222 
TABS,ioos:station:wmo:42047:1,2015-04-06T07:00:00Z,27.8966,-93.5973,1016.0,11111222 
TABS,ioos:station:wmo:42047:1,2015-04-06T07:30:00Z,27.8966,-93.5973,1015.83,11111222 
TABS,ioos:station:wmo:42047:1,2015-04-06T08:00:00Z,27.8966,-93.5973,1015.62,11111222 
TABS,ioos:station:wmo:42047:1,2015-04-06T08:30:00Z,27.8966,-93.5973,1015.38,11111222 
TABS,ioos:station:wmo:42047:1,2015-04-06T09:00:00Z,27.8966,-93.5973,1015.06,11111222 
TABS,ioos:station:wmo:42047:1,2015-04-06T09:30:00Z,27.8966,-93.5973,1014.83,11111222 
TABS,ioos:station:wmo:42047:1,2015-04-06T10:00:00Z,27.8966,-93.5973,1015.13,11111222 
TABS,ioos:station:wmo:42047:1,2015-04-06T10:30:00Z,27.8966,-93.5973,1015.19,11111222 
TABS,ioos:station:wmo:42047:1,2015-04-06T11:00:00Z,27.8966,-93.5973,1015.17,11111222 
TABS,ioos:station:wmo:42047:1,2015-04-06T11:30:00Z,27.8966,-93.5973,1015.32,11111222 
TABS,ioos:station:wmo:42047:1,2015-04-06T12:00:00Z,27.8966,-93.5973,1015.3,11111222 
TABS,ioos:station:wmo:42047:1,2015-04-06T12:30:00Z,27.8966,-93.5973,1016.07,11111222 
TABS,ioos:station:wmo:42047:1,2015-04-06T13:00:00Z,27.8966,-93.5973,1016.49,11111222 
TABS,ioos:station:wmo:42047:1,2015-04-06T13:30:00Z,27.8966,-93.5973,1017.03,11111222 
TABS,ioos:station:wmo:42047:1,2015-04-06T14:00:00Z,27.8966,-93.5973,1017.5,11111222 
TABS,ioos:station:wmo:42047:1,2015-04-06T14:30:00Z,27.8966,-93.5973,1017.59,11111222 
TABS,ioos:station:wmo:42047:1,2015-04-06T15:00:00Z,27.8966,-93.5973,1018.04,11111222 
TABS,ioos:station:wmo:42047:1,2015-04-06T15:30:00Z,27.8966,-93.5973,1018.15,11111222 
TABS,ioos:station:wmo:42047:1,2015-04-06T16:00:00Z,27.8966,-93.5973,1018.36,11111222 
TABS,ioos:station:wmo:42047:1,2015-04-06T16:30:00Z,27.8966,-93.5973,1018.61,11111222 
TABS,ioos:station:wmo:42047:1,2015-04-06T17:00:00Z,27.8966,-93.5973,1018.6,11111222 
TABS,ioos:station:wmo:42047:1,2015-04-06T17:30:00Z,27.8966,-93.5973,1018.37,11111222 
TABS,ioos:station:wmo:42047:1,2015-04-06T18:00:00Z,27.8966,-93.5973,1018.11,11111222 
TABS,ioos:station:wmo:42047:1,2015-04-06T18:30:00Z,27.8966,-93.5973,1017.83,11111222 